Wind_Speed
25 24 24 29 33 32 33 33 32 33 32 31 33 35 31 30 30 28 27 26 27 28 28 26 26 26 25 23 22 22 21 19 18 17 16 16 14 13 13 14 14 13 13 12 12 12 11 9 9 9 7 8 8 8 8 8 8 9 9 9 8 9 9
22 22 22 25 31 33 33 33 32 32 33 31 30 35 35 31 31 30 27 26 27 28 29 27 26 26 25 24 23 22 21 20 18 17 17 16 14 14 13 13 13 12 11 11 12 13 12 11 12 11 10 9 8 8 8 8 7 8 9 8 8 9 9
22 22 22 20 24 31 33 32 32 32 34 32 29 32 35 33 32 31 28 26 26 28 29 27 26 25 25 24 23 22 21 20 19 18 18 17 15 14 14 13 12 10 10 10 10 12 13 12 13 12 11 10 9 8 8 7 7 8 8 8 8 8 8
24 26 24 19 18 26 32 32 31 32 34 34 31 30 32 33 33 32 30 26 24 27 29 28 27 25 25 25 24 23 22 21 20 19 19 18 16 15 15 15 14 12 12 11 11 13 14 14 15 14 13 11 9 9 8 7 7 7 8 7 6 7 7
23 26 25 21 16 18 26 32 32 30 31 33 32 31 29 30 33 33 31 27 23 24 27 28 27 26 25 25 24 24 23 22 21 19 19 18 17 16 15 16 16 16 14 12 12 13 14 14 15 14 13 13 12 11 10 9 8 6 7 7 6 6 6
21 25 27 24 19 16 18 26 33 31 29 31 31 32 30 28 30 32 31 28 25 23 25 27 28 27 26 25 25 24 23 22 21 19 18 17 15 14 13 14 14 15 15 13 12 12 12 13 13 13 12 11 12 13 13 10 8 7 8 7 6 5 6
19 24 29 27 23 20 17 20 31 32 29 30 30 30 30 29 30 31 30 29 26 24 25 27 28 27 26 25 24 24 23 22 21 20 18 16 14 14 14 14 14 13 13 12 12 12 13 13 13 13 12 10 10 11 11 9 7 7 7 7 6 6 6
14 18 26 28 26 26 19 15 24 31 30 31 31 30 30 30 30 31 30 29 28 26 25 27 28 27 26 25 24 24 23 21 20 20 20 19 17 17 17 16 16 16 14 12 13 14 15 14 14 14 14 11 8 8 10 9 9 8 8 8 7 7 8
12 12 18 25 29 31 26 15 16 25 29 31 33 32 31 30 30 31 30 29 28 28 27 27 27 26 25 24 24 23 22 20 18 18 20 21 20 20 20 18 16 17 17 17 16 16 16 15 13 14 14 13 10 9 10 11 10 9 11 11 9 9 10
12 12 13 19 25 32 33 24 16 19 25 30 32 33 32 31 31 30 30 30 29 29 28 27 27 27 26 25 23 22 22 20 18 17 19 20 21 21 20 19 17 16 16 17 16 16 17 16 14 13 13 14 14 13 11 11 11 10 11 11 10 11 11
9 12 13 15 21 29 35 32 21 16 21 28 31 33 33 32 32 31 30 31 30 28 28 27 26 27 27 25 23 22 22 21 20 19 19 19 20 21 18 14 14 15 14 14 15 16 17 17 16 14 13 14 15 15 14 12 12 12 11 11 12 11 10
7 10 11 12 17 24 31 33 26 17 18 27 31 32 33 33 32 32 31 31 30 28 27 26 25 27 27 26 24 22 22 23 22 19 17 16 16 16 15 13 13 15 14 14 15 16 16 16 16 15 15 14 14 15 16 14 13 13 12 12 12 11 10
10 9 10 12 15 18 25 30 28 20 17 25 30 30 32 34 34 33 31 31 30 29 28 26 25 26 27 26 25 23 23 23 22 19 18 17 16 15 15 15 16 17 16 15 16 16 15 14 15 16 16 15 14 14 16 14 13 12 11 11 12 10 9
18 16 10 11 14 16 20 28 31 24 18 22 29 30 27 28 33 34 32 32 32 31 29 27 26 27 27 26 26 25 24 24 23 22 20 19 18 18 19 17 16 16 17 17 17 17 16 15 15 16 17 16 14 13 14 12 12 11 10 10 11 10 8
18 24 19 13 13 15 17 22 29 27 20 18 25 31 28 24 27 30 29 30 31 32 30 26 27 28 26 26 26 26 25 25 25 23 20 19 18 18 19 19 16 14 15 15 16 16 17 16 15 15 17 16 12 11 11 11 12 12 11 10 10 9 8
14 20 20 18 15 14 15 18 23 27 24 18 19 28 32 28 26 28 27 24 23 27 29 28 28 29 28 28 28 27 26 25 25 23 20 20 20 18 18 20 19 15 13 13 14 15 17 18 17 15 15 15 14 12 12 11 12 13 11 9 9 9 8
12 13 13 15 16 14 13 15 19 24 26 23 20 24 31 32 28 27 28 24 20 21 26 27 28 30 30 30 28 26 26 25 24 24 23 22 22 20 18 20 21 20 17 15 14 15 16 16 17 17 16 15 14 13 13 13 14 13 12 10 11 11 9
11 11 12 14 15 13 11 13 17 20 24 26 24 23 27 30 28 26 28 28 24 24 26 27 27 27 27 29 30 27 25 26 25 25 25 25 24 22 21 21 21 21 19 18 17 17 17 16 17 18 17 16 13 13 14 16 16 15 13 12 13 12 11
8 10 11 13 13 12 12 14 15 18 21 24 25 24 24 25 26 26 28 28 25 26 29 30 29 26 20 21 31 32 25 22 22 22 23 24 24 23 23 22 21 19 19 19 19 19 19 18 18 18 18 17 15 13 13 15 16 15 13 12 12 13 13
4 6 10 13 14 14 14 13 12 14 20 24 26 26 25 25 26 26 27 28 27 26 29 29 29 28 19 14 22 28 22 18 19 20 22 23 22 22 23 23 22 20 18 19 21 21 21 20 19 19 19 17 16 15 13 13 14 15 14 12 12 13 14
5 7 9 12 15 15 15 14 13 12 15 21 25 26 27 27 28 28 28 29 28 27 27 26 26 28 26 19 18 21 21 19 19 21 23 22 22 21 22 22 21 20 20 21 22 22 21 21 21 20 21 20 19 18 16 15 14 14 14 14 13 14 15
5 7 9 12 14 15 15 15 14 14 14 17 20 24 27 28 30 31 30 28 27 26 25 24 23 26 27 25 24 23 23 21 20 21 23 23 22 21 21 22 22 22 23 24 23 23 21 21 21 22 24 23 21 20 19 17 15 14 14 14 14 14 15
6 7 8 11 12 14 15 14 14 14 14 16 19 24 29 31 30 29 27 27 27 25 24 24 24 24 23 23 24 24 23 22 22 23 25 25 25 23 23 23 23 24 24 24 24 24 23 22 22 23 24 23 22 21 20 18 16 15 15 16 16 16 16
6 7 8 9 9 11 12 11 12 12 14 18 20 22 31 31 30 28 26 26 26 24 23 23 23 24 22 21 21 21 22 23 24 25 26 27 27 26 24 24 24 25 25 25 26 26 25 24 24 23 23 22 22 21 20 18 17 17 17 17 17 16 15
6 6 7 8 8 9 10 10 13 13 14 21 15 15 32 29 27 29 27 25 26 25 24 24 23 23 22 21 21 20 20 22 25 27 28 28 28 26 25 24 23 23 23 23 24 26 24 23 24 23 22 23 23 21 19 18 18 18 19 19 18 15 12
5 5 7 7 6 7 9 10 15 16 15 19 12 14 32 30 26 27 26 25 25 24 23 24 24 21 18 18 20 20 21 22 24 27 28 27 26 25 23 21 19 20 20 19 21 24 21 20 23 24 23 23 23 22 20 18 18 19 19 19 17 13 10
4 5 5 5 4 5 7 9 12 15 13 12 9 7 21 28 29 27 27 26 24 20 17 19 21 18 15 16 19 21 23 22 22 24 24 23 22 21 20 17 14 12 9 8 10 14 13 13 16 18 18 19 18 16 14 14 14 12 9 7 8 9 8
2 2 2 2 2 2 4 6 7 10 10 7 4 1 8 17 23 24 22 21 20 16 13 13 16 15 14 17 19 19 20 19 16 16 15 13 12 10 9 8 6 5 6 6 4 7 10 9 7 6 8 10 11 9 8 7 8 7 5 5 5 6 6
3 3 4 3 4 4 4 4 5 5 5 5 5 6 7 12 17 19 18 16 14 12 10 11 14 14 15 17 17 15 15 14 11 8 8 8 8 8 9 9 10 9 9 8 8 10 12 11 9 8 9 10 12 11 9 7 7 7 5 5 5 4 4
5 6 6 6 5 5 6 8 7 7 9 13 14 14 15 18 21 22 22 22 20 18 17 18 19 18 18 18 17 15 15 14 12 11 11 11 11 11 12 13 14 14 14 12 11 12 13 13 11 9 9 10 11 12 11 10 9 9 9 9 9 8 8
7 8 8 7 6 6 7 11 13 13 14 17 19 18 18 21 26 28 29 27 25 24 24 24 23 23 22 22 22 22 21 20 19 19 18 18 17 17 18 18 18 18 18 17 16 15 16 15 12 10 11 12 13 13 14 14 13 11 11 10 9 9 8
10 10 9 9 9 10 12 16 19 18 17 18 19 19 19 22 26 29 29 28 27 28 30 30 30 30 29 29 29 28 26 25 26 25 25 24 23 23 23 22 21 20 19 18 17 16 15 13 12 12 14 15 14 14 13 13 12 10 9 9 9 8 8
11 10 10 12 14 15 17 20 21 20 20 19 19 20 22 25 28 30 32 32 32 34 35 35 35 34 32 31 30 28 26 26 26 26 25 23 23 24 23 22 21 20 19 17 16 15 14 12 12 12 13 13 13 12 11 10 9 9 8 8 8 8 7
10 10 11 14 17 17 19 22 24 22 21 21 19 20 23 25 27 29 31 33 33 34 34 34 33 31 29 27 26 24 23 22 22 21 20 20 20 21 21 20 18 18 17 16 14 13 13 12 11 10 10 11 11 10 9 9 9 9 9 8 8 7 7
13 14 17 19 21 20 22 24 25 25 24 24 24 23 23 23 24 26 28 29 28 29 29 28 27 26 25 24 23 22 22 21 19 19 19 19 20 20 20 19 17 15 15 14 13 13 13 12 12 12 11 11 11 10 9 9 9 9 9 8 8 8 7
20 21 21 22 22 23 25 27 27 27 27 26 24 22 20 20 20 22 25 25 24 25 26 25 24 24 23 22 22 21 20 20 20 20 20 20 21 21 21 20 18 17 16 16 16 16 15 14 14 14 13 12 12 11 11 10 10 10 10 9 9 9 9
22 22 21 21 22 25 27 26 25 26 26 24 21 20 19 18 17 18 20 21 20 20 21 22 23 24 24 23 23 22 22 23 23 23 23 22 22 22 22 21 20 20 19 18 17 16 15 14 14 14 13 12 12 11 11 11 11 11 11 10 9 9 9
21 22 23 23 24 25 25 23 22 23 24 23 21 20 20 21 20 19 18 19 19 20 21 23 25 26 26 25 24 23 23 23 23 23 23 22 21 21 20 20 19 19 19 18 18 16 15 15 14 14 13 13 13 13 12 12 11 11 11 10 10 10 9
Wind_Direction
207 216 207 188 184 188 191 193 194 191 190 192 189 184 184 190 197 202 205 205 200 197 198 197 194 193 195 195 193 195 198 200 199 194 194 196 199 200 198 202 205 199 198 202 201 201 199 195 203 212 219 219 217 216 214 214 211 211 222 227 226 230 244
208 218 216 197 187 188 192 193 194 194 192 193 191 186 185 189 197 203 207 209 204 200 200 199 197 196 197 197 197 198 200 202 202 199 198 200 202 204 203 204 207 203 199 202 203 200 196 199 209 223 231 221 217 222 220 220 220 220 227 230 228 233 244
207 214 217 212 196 189 192 195 195 196 195 193 191 188 187 191 199 205 209 211 208 203 202 201 199 199 199 200 200 201 202 204 204 203 204 206 206 208 206 204 204 208 210 209 205 196 195 207 215 220 227 224 219 220 217 220 228 230 234 234 229 230 240
212 213 210 219 217 196 191 194 196 199 199 196 193 190 189 193 201 207 211 213 211 204 203 204 203 202 202 203 204 204 204 206 207 207 208 210 211 213 212 205 201 209 217 216 208 200 200 211 219 221 225 227 227 223 219 228 234 228 230 237 234 233 244
220 218 211 222 237 211 195 193 194 199 199 197 197 194 191 195 203 207 210 213 213 209 206 205 206 206 205 205 205 206 207 208 210 211 212 215 214 214 215 209 203 208 215 217 209 202 206 212 214 220 227 228 229 226 225 231 237 232 233 242 241 238 249
215 216 216 227 234 220 210 199 192 194 198 197 198 197 196 199 203 206 208 209 212 213 209 208 209 209 209 208 206 207 209 209 210 213 213 214 213 212 215 213 209 212 214 216 213 206 212 217 214 220 229 229 227 229 229 226 230 237 241 245 243 242 251
205 212 218 227 225 218 227 214 195 194 198 199 198 198 201 204 203 204 206 207 211 215 212 210 210 210 211 210 208 208 211 212 212 212 212 209 207 211 219 216 215 224 223 214 214 216 220 223 220 223 231 232 226 223 224 228 241 245 236 234 243 250 253
206 217 221 224 221 215 222 221 200 195 196 198 198 197 199 203 202 202 204 206 210 213 215 212 208 209 212 212 211 208 210 216 216 213 210 205 204 212 222 221 213 217 224 219 216 220 225 228 227 226 228 233 227 207 207 227 245 241 228 232 244 251 252
219 225 227 224 222 217 218 222 205 199 198 197 199 200 200 200 198 200 203 205 207 210 214 212 206 207 210 212 213 208 206 216 221 218 212 206 206 212 218 222 216 211 217 220 216 217 226 233 233 231 228 227 228 218 212 223 231 225 221 228 239 250 256
230 224 230 230 228 222 220 223 216 207 206 202 200 201 202 201 199 200 203 206 210 212 214 211 204 204 210 211 213 208 205 212 218 219 216 211 213 216 217 220 221 217 218 219 215 215 225 231 234 235 229 222 226 228 220 220 227 225 221 225 238 251 259
233 223 227 235 236 224 220 223 223 218 213 206 202 201 202 201 201 203 205 208 212 213 213 211 203 202 210 213 213 210 205 208 215 219 221 220 217 216 218 221 221 223 223 218 214 217 223 229 233 237 234 225 224 225 223 223 228 230 230 230 236 246 256
247 228 233 246 241 223 218 222 225 227 216 205 202 201 202 204 202 203 206 207 211 212 209 209 206 204 210 214 214 210 206 208 216 221 222 221 216 211 214 220 221 225 228 222 219 222 225 229 234 238 239 231 224 224 227 228 227 229 234 236 237 246 258
300 257 242 257 258 235 222 220 224 231 218 204 202 201 202 206 206 206 207 207 209 212 210 209 206 205 211 216 214 211 207 207 213 220 222 219 213 210 214 220 223 225 227 226 224 223 223 228 238 244 240 231 226 228 230 229 227 230 235 238 241 248 255
326 312 282 259 263 256 236 224 224 228 217 205 206 205 205 207 206 207 210 211 211 212 211 208 205 206 211 214 213 211 208 207 208 214 220 220 215 213 214 216 221 224 229 232 230 226 225 225 235 239 230 226 225 222 222 224 225 231 234 234 239 245 250
337 331 325 299 274 269 257 236 226 223 219 212 210 210 211 210 205 204 207 209 210 210 208 205 203 206 211 212 213 215 215 214 212 212 216 218 218 220 216 214 218 223 230 233 226 228 233 230 230 231 225 230 235 223 222 228 228 235 239 232 231 235 241
342 331 327 320 303 283 267 250 234 225 224 221 212 210 212 210 207 206 203 200 200 202 204 205 206 207 209 212 215 218 221 220 215 211 213 216 218 221 218 214 217 218 223 227 219 225 237 234 232 236 233 237 241 231 231 234 229 237 245 240 237 235 236
346 332 332 333 320 296 272 258 245 234 230 227 220 212 211 212 212 210 207 203 199 196 195 199 205 208 211 214 218 220 223 223 216 209 212 216 217 219 219 218 219 217 219 224 217 218 231 234 233 237 238 238 236 231 234 235 231 234 242 246 248 243 240
357 352 353 346 333 317 297 277 258 243 235 231 227 218 214 215 216 214 211 210 211 209 202 198 199 202 207 212 213 212 212 214 212 210 213 218 217 218 222 223 224 224 224 225 221 216 223 230 232 235 238 238 235 235 238 238 233 233 238 246 248 240 236
5 360 347 335 333 328 310 294 275 253 240 232 228 227 225 222 217 214 213 212 214 215 213 210 205 200 200 206 207 205 203 205 208 210 216 221 221 222 225 227 228 230 228 229 232 231 231 233 233 236 241 241 236 236 238 235 231 230 234 242 241 233 229
329 331 327 321 318 313 307 305 296 266 245 234 229 231 235 230 222 216 211 213 218 219 215 213 212 211 215 216 209 208 211 217 219 220 221 223 225 226 227 229 231 233 232 233 238 241 242 242 240 240 243 242 237 238 238 233 228 225 229 236 234 229 228
263 286 304 307 305 303 305 307 303 284 256 240 235 237 240 234 224 218 212 211 216 219 214 210 212 219 226 229 219 214 216 219 224 228 227 226 227 227 227 228 229 230 233 235 238 242 246 249 248 247 247 245 243 245 246 242 234 226 226 231 231 228 227
284 291 293 298 300 301 302 300 299 297 276 247 234 234 235 228 218 212 209 210 215 215 211 210 214 222 225 225 223 222 221 222 225 229 229 228 228 227 229 231 232 232 233 235 237 240 243 245 248 250 251 248 245 245 244 240 234 228 225 226 227 228 230
307 306 298 297 298 298 299 297 296 292 274 252 237 227 221 216 209 204 202 204 210 209 204 205 211 217 219 218 219 222 223 223 225 228 229 230 229 227 229 232 234 235 236 236 236 237 238 240 243 246 248 249 247 244 240 232 225 223 224 226 227 227 230
314 311 307 303 299 300 303 302 297 284 270 275 267 226 206 200 193 191 191 191 193 195 195 198 205 211 215 215 218 224 223 220 221 223 225 228 228 225 226 230 233 236 238 238 238 239 240 240 239 239 240 242 241 235 228 221 217 218 221 224 225 226 229
329 320 317 311 300 301 307 307 307 300 284 295 296 182 174 178 175 176 182 184 185 191 196 200 206 211 212 208 210 218 219 217 219 220 222 227 228 227 227 228 230 234 236 239 242 242 240 237 236 234 228 227 230 226 219 217 219 222 224 220 215 214 216
328 316 311 309 296 296 304 305 312 317 309 309 326 135 154 167 172 176 182 183 183 187 190 194 199 201 199 197 202 210 214 218 220 218 219 225 226 226 227 228 230 233 238 247 246 237 229 227 231 228 216 211 216 217 213 215 219 224 226 217 199 184 179
306 302 301 307 296 292 311 315 313 324 331 323 327 118 148 163 171 175 181 182 180 178 175 180 187 188 187 192 201 207 207 209 212 210 212 218 221 223 225 225 226 229 242 270 252 221 201 200 212 213 201 193 194 192 192 197 202 205 208 193 165 147 145
304 320 301 303 302 288 322 336 328 333 348 347 333 66 149 168 170 169 173 178 182 186 187 190 197 200 193 190 196 201 198 199 205 203 199 200 202 201 194 184 169 128 80 56 76 125 122 120 129 132 140 147 141 131 132 143 150 146 134 127 129 135 148
146 122 118 100 73 67 54 41 25 19 40 74 110 128 146 162 162 157 155 154 158 167 170 173 183 186 179 178 185 187 182 184 190 181 157 148 149 136 122 123 118 105 97 98 108 112 108 106 103 97 103 110 106 102 101 105 105 99 99 106 106 114 129
150 133 119 111 102 84 68 65 64 76 100 112 121 131 135 134 131 128 125 124 127 134 138 141 149 153 152 154 155 147 140 139 136 129 120 121 126 121 114 114 114 112 112 114 116 117 115 115 114 111 105 98 96 97 97 98 98 90 83 82 83 85 85
125 119 117 118 121 108 85 84 93 102 110 113 117 122 123 119 116 114 115 118 123 128 130 132 135 135 132 129 125 120 117 114 112 111 109 109 111 111 110 109 109 109 109 109 109 110 112 112 109 104 100 99 100 99 93 91 90 81 71 70 75 79 78
116 119 126 123 115 111 109 107 106 103 101 104 109 114 117 116 114 114 116 119 121 121 121 121 121 120 119 117 116 116 116 115 112 109 107 107 110 112 112 112 111 107 105 104 105 106 106 104 101 100 102 102 101 97 89 84 79 71 64 67 70 69 67
125 128 127 121 114 113 117 119 115 104 94 95 103 110 114 116 117 117 118 118 118 117 117 116 115 116 117 119 119 119 119 118 116 115 114 114 114 114 113 112 111 108 106 105 105 105 102 98 95 94 93 89 85 81 78 74 71 71 72 73 71 69 68
133 127 121 118 117 118 120 120 118 110 96 92 100 107 109 112 116 116 114 114 116 118 119 118 117 118 119 118 118 116 114 114 117 119 118 117 117 116 113 110 108 105 104 101 95 91 90 88 85 81 76 73 71 67 63 65 67 69 69 67 66 67 67
126 120 118 116 115 115 115 113 111 106 96 89 92 96 98 101 106 108 107 107 109 110 112 113 113 114 114 114 113 112 111 111 112 113 112 113 114 114 112 111 108 105 103 99 92 85 82 82 83 80 73 70 71 68 64 68 71 70 69 68 67 66 64
122 118 116 114 110 108 107 106 105 104 99 94 93 93 91 88 91 97 102 103 102 103 105 107 109 110 111 112 113 114 113 112 111 110 110 110 111 111 110 108 105 101 98 95 90 87 85 84 85 83 78 75 77 76 73 73 72 71 70 68 67 67 66
127 122 117 116 116 115 112 109 105 102 101 101 101 103 102 98 95 98 100 100 101 106 110 111 109 108 108 109 109 110 111 110 109 108 107 105 103 103 103 103 101 97 93 89 88 88 87 85 83 81 79 77 75 73 70 69 68 68 68 67 67 67 66
136 129 125 125 127 126 122 119 115 111 109 109 108 108 110 109 108 107 106 106 109 112 112 109 106 104 104 104 105 106 106 106 105 103 101 99 97 96 95 94 94 93 90 86 85 83 81 78 75 72 70 68 66 64 62 59 59 60 61 63 66 69 72
Height
1512 1513 1515 1516 1516 1519 1522 1524 1526 1528 1530 1531 1533 1535 1537 1539 1540 1542 1545 1547 1549 1550 1552 1554 1556 1557 1559 1561 1562 1564 1565 1566 1568 1569 1570 1572 1573 1574 1575 1576 1577 1578 1578 1579 1580 1581 1582 1582 1583 1584 1584 1585 1586 1586 1587 1587 1588 1589 1589 1589 1590 1590 1590
1511 1512 1514 1515 1516 1517 1520 1523 1525 1527 1528 1530 1531 1533 1535 1537 1538 1540 1543 1545 1547 1549 1551 1553 1554 1556 1557 1559 1561 1563 1564 1565 1567 1568 1569 1570 1572 1573 1574 1575 1576 1577 1578 1579 1580 1580 1581 1582 1583 1583 1584 1585 1585 1585 1586 1587 1587 1588 1588 1589 1589 1589 1590
1509 1511 1511 1515 1515 1515 1518 1520 1523 1525 1527 1529 1530 1531 1533 1534 1536 1538 1541 1544 1546 1548 1550 1551 1553 1555 1556 1558 1559 1561 1563 1564 1565 1567 1568 1569 1571 1572 1573 1574 1575 1576 1577 1578 1579 1580 1581 1581 1582 1583 1583 1584 1584 1585 1585 1586 1586 1587 1587 1588 1588 1588 1589
1507 1509 1510 1514 1516 1516 1516 1517 1521 1524 1525 1527 1529 1530 1531 1533 1535 1536 1539 1542 1544 1546 1548 1550 1552 1553 1555 1556 1558 1560 1561 1563 1564 1566 1567 1568 1570 1571 1572 1573 1574 1575 1576 1577 1578 1579 1580 1581 1581 1582 1582 1583 1583 1584 1585 1585 1585 1586 1586 1587 1587 1587 1587
1506 1508 1510 1512 1514 1516 1516 1515 1518 1522 1524 1526 1528 1529 1530 1532 1534 1535 1537 1540 1542 1545 1547 1549 1551 1552 1554 1555 1557 1558 1560 1561 1563 1564 1566 1567 1569 1570 1571 1572 1573 1574 1575 1576 1577 1578 1579 1580 1580 1581 1581 1582 1582 1583 1583 1584 1584 1585 1585 1585 1586 1586 1586
1505 1506 1508 1509 1511 1514 1515 1516 1516 1519 1523 1525 1527 1529 1530 1531 1532 1534 1536 1538 1540 1543 1546 1547 1549 1551 1552 1554 1555 1557 1559 1560 1562 1563 1565 1566 1568 1569 1570 1571 1572 1573 1574 1575 1576 1577 1578 1579 1579 1580 1580 1581 1581 1582 1582 1583 1583 1584 1584 1584 1585 1585 1585
1503 1504 1505 1507 1509 1511 1515 1517 1516 1517 1521 1524 1526 1528 1529 1530 1531 1533 1535 1537 1538 1541 1543 1546 1548 1549 1551 1552 1554 1556 1557 1559 1561 1562 1564 1566 1567 1568 1569 1570 1572 1573 1574 1574 1575 1576 1577 1578 1578 1578 1579 1580 1580 1580 1581 1582 1582 1583 1583 1583 1583 1584 1584
1502 1503 1503 1505 1507 1510 1513 1516 1516 1516 1518 1521 1524 1527 1528 1529 1530 1531 1533 1535 1537 1539 1541 1543 1545 1547 1549 1551 1553 1555 1556 1558 1560 1561 1563 1565 1566 1568 1569 1570 1571 1572 1573 1573 1574 1575 1575 1576 1577 1577 1578 1578 1579 1579 1580 1580 1581 1582 1582 1582 1582 1583 1583
1501 1501 1502 1503 1505 1508 1511 1513 1515 1516 1517 1519 1522 1525 1527 1528 1529 1530 1532 1534 1535 1537 1539 1541 1544 1546 1548 1550 1552 1554 1556 1557 1559 1560 1562 1563 1565 1566 1567 1568 1569 1571 1571 1572 1573 1574 1574 1575 1575 1576 1576 1576 1577 1578 1578 1579 1580 1580 1580 1580 1581 1581 1581
1500 1501 1502 1503 1504 1505 1509 1511 1513 1515 1516 1517 1519 1522 1525 1527 1528 1529 1531 1532 1534 1535 1537 1539 1542 1545 1547 1549 1551 1552 1555 1556 1557 1559 1560 1562 1563 1564 1566 1567 1568 1569 1570 1571 1572 1573 1573 1573 1574 1574 1574 1575 1575 1576 1577 1577 1578 1578 1579 1579 1579 1580 1580
1499 1501 1501 1502 1502 1503 1506 1508 1511 1513 1515 1516 1517 1520 1522 1525 1527 1528 1529 1531 1532 1534 1536 1538 1541 1543 1545 1547 1549 1551 1553 1555 1556 1557 1558 1560 1561 1563 1564 1566 1566 1568 1569 1569 1570 1571 1571 1572 1572 1573 1573 1573 1574 1574 1574 1575 1576 1576 1577 1578 1578 1578 1579
1501 1501 1501 1501 1501 1502 1503 1506 1509 1511 1513 1514 1516 1518 1520 1522 1524 1526 1528 1530 1532 1533 1535 1537 1540 1541 1543 1546 1547 1549 1551 1553 1554 1555 1556 1558 1559 1561 1563 1564 1565 1566 1567 1568 1569 1569 1570 1570 1570 1570 1571 1571 1572 1572 1572 1573 1574 1575 1575 1576 1577 1577 1578
1503 1502 1502 1501 1500 1501 1501 1503 1506 1509 1510 1512 1513 1515 1517 1520 1522 1525 1526 1528 1531 1533 1535 1537 1538 1540 1542 1544 1546 1547 1549 1551 1552 1553 1554 1556 1558 1560 1561 1563 1564 1565 1565 1566 1567 1567 1568 1568 1568 1568 1568 1569 1569 1570 1570 1571 1572 1573 1574 1575 1575 1576 1576
1505 1504 1503 1501 1500 1500 1501 1502 1504 1506 1508 1509 1511 1513 1515 1517 1519 1522 1525 1527 1529 1531 1533 1536 1538 1539 1540 1542 1544 1546 1547 1549 1550 1552 1553 1555 1557 1558 1560 1561 1563 1563 1564 1565 1565 1565 1565 1566 1566 1566 1565 1566 1567 1568 1569 1570 1571 1572 1572 1573 1573 1574 1575
1503 1505 1504 1504 1502 1501 1501 1501 1502 1503 1506 1507 1509 1512 1514 1515 1517 1519 1522 1525 1528 1530 1532 1534 1536 1537 1539 1541 1542 1544 1546 1548 1549 1551 1552 1554 1555 1557 1558 1560 1561 1562 1562 1563 1564 1564 1563 1563 1564 1563 1564 1565 1567 1568 1568 1570 1571 1571 1571 1572 1572 1573 1573
1498 1501 1504 1506 1505 1503 1502 1502 1501 1502 1504 1505 1507 1509 1511 1514 1516 1517 1519 1521 1525 1528 1531 1533 1535 1536 1537 1538 1540 1542 1544 1545 1547 1549 1551 1552 1554 1555 1557 1558 1559 1560 1561 1561 1562 1562 1562 1562 1562 1562 1564 1565 1566 1567 1567 1568 1569 1569 1570 1570 1571 1571 1572
1496 1498 1501 1504 1505 1503 1503 1502 1501 1501 1502 1504 1506 1507 1509 1512 1514 1517 1520 1521 1523 1525 1526 1529 1532 1534 1536 1537 1538 1541 1543 1545 1546 1548 1549 1551 1553 1554 1555 1556 1557 1559 1559 1560 1561 1561 1560 1561 1561 1562 1563 1564 1565 1566 1566 1566 1567 1567 1568 1569 1569 1570 1571
1496 1498 1498 1501 1502 1502 1502 1502 1502 1501 1501 1503 1504 1506 1508 1510 1512 1515 1519 1521 1524 1525 1525 1525 1526 1529 1533 1534 1536 1538 1539 1541 1543 1545 1548 1549 1551 1552 1554 1555 1556 1557 1559 1559 1559 1559 1559 1560 1560 1561 1562 1562 1563 1564 1564 1565 1566 1566 1566 1567 1567 1568 1569
1496 1497 1498 1499 1500 1501 1502 1501 1501 1501 1501 1502 1503 1505 1507 1508 1510 1513 1516 1519 1522 1524 1525 1526 1527 1528 1529 1530 1531 1533 1536 1539 1542 1544 1547 1548 1550 1551 1552 1553 1555 1556 1557 1557 1557 1557 1558 1559 1559 1560 1560 1560 1561 1562 1562 1563 1564 1564 1564 1565 1565 1566 1567
1494 1495 1496 1498 1499 1499 1500 1499 1499 1499 1499 1501 1502 1504 1505 1506 1508 1511 1513 1516 1519 1521 1523 1525 1527 1529 1529 1529 1531 1534 1538 1541 1543 1544 1546 1547 1549 1550 1551 1552 1553 1554 1555 1555 1555 1555 1556 1557 1558 1559 1558 1559 1560 1560 1560 1561 1561 1561 1562 1563 1563 1564 1564
1493 1494 1495 1495 1496 1497 1497 1497 1496 1496 1497 1499 1500 1501 1503 1504 1505 1507 1509 1512 1516 1518 1521 1523 1525 1526 1528 1530 1534 1536 1537 1538 1539 1541 1543 1545 1547 1549 1550 1551 1551 1552 1553 1552 1552 1552 1553 1554 1556 1556 1557 1557 1558 1558 1558 1559 1559 1559 1560 1561 1561 1562 1562
1494 1494 1494 1494 1494 1495 1495 1495 1494 1494 1495 1496 1497 1498 1499 1501 1501 1502 1505 1508 1512 1514 1517 1521 1523 1523 1525 1530 1533 1535 1534 1534 1536 1538 1540 1543 1546 1547 1548 1549 1549 1549 1549 1549 1549 1549 1550 1551 1552 1553 1554 1555 1556 1556 1556 1556 1557 1557 1558 1558 1559 1559 1560
1495 1495 1494 1494 1494 1494 1494 1494 1493 1493 1492 1492 1493 1493 1493 1496 1497 1498 1500 1504 1508 1511 1513 1517 1520 1521 1523 1527 1530 1532 1532 1532 1533 1535 1538 1540 1543 1545 1546 1546 1546 1546 1546 1546 1546 1545 1546 1547 1547 1548 1550 1553 1554 1554 1554 1554 1554 1555 1556 1556 1557 1557 1558
1496 1495 1494 1494 1494 1494 1494 1494 1492 1491 1490 1490 1489 1487 1487 1490 1492 1493 1497 1501 1505 1508 1510 1513 1516 1517 1520 1524 1527 1529 1529 1529 1531 1533 1535 1538 1540 1542 1543 1543 1543 1543 1544 1544 1543 1542 1544 1544 1542 1543 1547 1550 1551 1551 1551 1551 1552 1552 1553 1554 1554 1555 1555
1496 1495 1494 1494 1494 1495 1495 1493 1491 1489 1489 1489 1485 1481 1482 1488 1489 1491 1495 1500 1503 1506 1507 1509 1513 1515 1518 1521 1524 1526 1526 1527 1529 1531 1533 1535 1537 1539 1539 1539 1540 1540 1541 1541 1540 1540 1542 1542 1541 1541 1544 1546 1548 1548 1548 1549 1549 1549 1549 1549 1550 1551 1552
1497 1495 1494 1494 1495 1495 1495 1493 1490 1488 1487 1487 1485 1482 1483 1487 1489 1491 1495 1498 1501 1504 1505 1507 1510 1513 1516 1519 1522 1525 1527 1528 1529 1529 1531 1533 1534 1536 1537 1537 1538 1539 1539 1539 1538 1537 1537 1539 1539 1540 1541 1543 1544 1544 1544 1545 1546 1547 1546 1546 1546 1547 1548
1497 1495 1494 1494 1494 1495 1494 1493 1490 1489 1488 1488 1489 1489 1488 1487 1489 1492 1494 1496 1500 1503 1505 1507 1510 1513 1516 1518 1520 1524 1526 1527 1527 1526 1528 1530 1531 1532 1534 1535 1537 1537 1537 1538 1537 1534 1533 1536 1539 1539 1539 1540 1541 1540 1541 1542 1544 1544 1545 1545 1545 1545 1547
1495 1495 1495 1495 1494 1493 1493 1492 1490 1490 1492 1491 1492 1493 1493 1491 1491 1493 1494 1496 1499 1502 1506 1508 1511 1514 1516 1518 1520 1522 1525 1527 1526 1524 1525 1527 1528 1530 1531 1533 1535 1535 1535 1536 1537 1534 1533 1537 1541 1541 1540 1540 1541 1541 1541 1542 1543 1544 1545 1545 1546 1546 1547
1496 1496 1496 1496 1495 1494 1492 1492 1492 1493 1495 1496 1496 1497 1497 1496 1495 1494 1496 1498 1500 1502 1505 1508 1510 1513 1515 1517 1520 1522 1524 1525 1525 1524 1525 1526 1527 1529 1530 1532 1533 1534 1534 1535 1536 1535 1535 1537 1541 1542 1542 1543 1543 1543 1542 1543 1544 1545 1546 1546 1546 1547 1547
1497 1497 1496 1495 1495 1494 1492 1493 1495 1497 1499 1500 1500 1500 1500 1500 1499 1498 1498 1499 1501 1504 1506 1508 1510 1513 1515 1518 1521 1523 1524 1524 1525 1525 1526 1527 1529 1530 1531 1532 1533 1534 1535 1535 1536 1537 1537 1538 1540 1543 1544 1544 1544 1544 1544 1544 1545 1546 1547 1546 1547 1547 1548
1499 1499 1498 1496 1495 1494 1493 1495 1499 1501 1503 1503 1503 1503 1503 1503 1502 1501 1501 1503 1505 1507 1508 1509 1512 1514 1517 1519 1521 1523 1524 1525 1526 1527 1528 1530 1531 1531 1532 1533 1534 1535 1536 1536 1537 1538 1539 1540 1542 1544 1545 1545 1544 1545 1545 1545 1546 1547 1548 1548 1548 1549 1550
1501 1500 1499 1498 1496 1495 1494 1497 1501 1505 1506 1506 1506 1505 1505 1505 1505 1503 1504 1506 1508 1510 1511 1513 1515 1517 1519 1521 1522 1524 1525 1526 1527 1529 1530 1532 1533 1533 1534 1535 1535 1536 1537 1537 1538 1540 1541 1542 1543 1544 1545 1546 1546 1546 1547 1547 1547 1548 1549 1549 1549 1550 1550
1503 1502 1501 1499 1498 1497 1498 1498 1502 1507 1510 1509 1509 1508 1508 1508 1508 1507 1507 1509 1511 1513 1514 1516 1517 1519 1520 1521 1523 1524 1525 1526 1528 1530 1532 1533 1534 1535 1536 1536 1537 1537 1538 1538 1540 1541 1543 1544 1545 1545 1546 1547 1547 1548 1548 1549 1549 1550 1550 1550 1550 1550 1551
1505 1504 1503 1502 1501 1501 1501 1501 1503 1508 1511 1512 1512 1512 1512 1512 1511 1511 1511 1512 1514 1516 1517 1518 1519 1520 1521 1523 1524 1526 1527 1528 1530 1532 1533 1535 1536 1537 1537 1538 1538 1539 1539 1540 1541 1543 1544 1545 1546 1547 1547 1548 1549 1549 1550 1550 1551 1550 1551 1551 1551 1551 1551
1506 1506 1506 1505 1505 1505 1505 1505 1506 1509 1513 1514 1515 1517 1517 1517 1516 1516 1515 1516 1518 1519 1520 1521 1522 1522 1523 1525 1526 1528 1529 1531 1533 1534 1535 1536 1537 1537 1538 1539 1539 1540 1541 1542 1543 1544 1546 1547 1547 1548 1549 1550 1550 1551 1551 1552 1552 1551 1552 1552 1551 1552 1552
1508 1509 1508 1508 1509 1508 1508 1510 1511 1513 1515 1516 1517 1520 1521 1521 1521 1521 1520 1521 1522 1522 1522 1523 1524 1525 1526 1528 1530 1531 1533 1534 1535 1536 1537 1538 1538 1538 1538 1539 1541 1542 1543 1544 1545 1546 1547 1548 1549 1549 1550 1551 1551 1552 1552 1552 1552 1552 1552 1552 1552 1552 1552
1510 1510 1510 1511 1511 1511 1511 1513 1515 1516 1517 1518 1520 1523 1524 1525 1525 1525 1525 1525 1526 1526 1526 1527 1527 1528 1529 1531 1533 1534 1535 1536 1537 1538 1539 1539 1540 1540 1540 1541 1542 1543 1544 1545 1546 1547 1549 1549 1550 1551 1552 1552 1553 1553 1553 1553 1553 1553 1553 1553 1553 1553 1553
1511 1511 1512 1513 1513 1514 1514 1514 1515 1517 1518 1519 1522 1524 1526 1526 1527 1528 1528 1529 1529 1530 1530 1530 1530 1531 1532 1534 1535 1537 1538 1538 1539 1540 1540 1541 1541 1542 1543 1543 1544 1544 1546 1547 1548 1549 1550 1551 1551 1552 1553 1553 1554 1554 1554 1554 1554 1554 1554 1554 1554 1554 1553